Wind_Speed
58 48 45 49 50 50 53 56 58 56 53 51 48 46 44 44 43 42 43 43 42 41 39 37 38 38 34 31 28 26 27 27 23 19 20 19 15 13 13 13 12 12 14 14 13 13 12 11 10 7 6 8 7 9 16 19 20 19 18 18 18 18 19
60 54 48 49 53 51 49 53 58 59 58 55 52 49 47 46 45 44 44 44 42 41 39 37 38 37 33 29 28 29 31 31 24 20 20 19 16 15 15 15 13 13 14 14 12 11 10 9 9 8 6 7 7 7 10 16 20 20 18 19 20 20 22
63 60 56 51 53 53 49 51 54 58 60 59 55 50 48 48 46 45 45 44 42 40 39 38 38 36 30 26 29 32 33 31 25 20 20 19 16 16 17 16 14 13 14 14 11 9 8 8 9 8 5 6 7 8 10 15 19 18 19 20 21 21 21
66 64 61 55 53 53 51 50 51 53 56 59 57 52 49 48 47 46 46 44 43 40 39 38 37 35 30 27 30 31 31 30 25 21 20 18 17 17 17 16 15 14 14 14 11 8 6 6 7 6 4 4 5 7 9 13 15 16 18 19 18 18 18
67 65 62 57 52 52 52 50 49 49 50 53 54 53 51 50 50 49 46 44 43 41 39 37 36 34 31 27 27 27 29 29 24 20 19 18 17 17 17 16 15 14 15 15 12 9 6 4 5 4 3 5 5 6 8 10 10 12 13 14 15 16 17
69 65 62 58 52 52 52 48 46 47 47 48 50 52 53 53 52 50 46 44 43 40 37 36 34 31 27 25 25 28 29 28 24 20 18 17 17 17 16 16 15 14 15 15 12 10 6 3 3 3 3 4 5 6 6 7 8 9 10 12 14 16 18
71 67 63 58 54 53 51 45 44 46 45 44 45 49 53 53 52 49 45 43 41 38 36 34 31 27 25 24 26 28 29 28 24 20 19 18 17 17 16 16 15 15 16 15 13 10 7 4 2 2 1 2 3 3 4 5 7 9 10 13 15 17 18
72 69 64 60 56 53 50 44 41 42 42 40 40 43 47 48 48 45 42 41 40 37 34 31 29 27 25 25 26 28 28 27 24 20 20 19 17 17 16 16 16 15 16 15 12 9 7 5 2 1 1 2 2 3 4 5 7 8 10 12 14 16 17
74 71 64 60 57 53 51 45 38 37 39 38 38 39 41 42 43 42 40 40 38 35 32 30 30 28 27 26 26 27 28 27 24 21 20 20 18 17 17 16 16 16 17 15 13 10 7 4 3 3 3 3 3 4 5 7 8 9 11 12 13 14 15
75 72 65 61 58 55 53 45 35 34 37 37 37 38 40 41 42 41 40 39 36 32 31 32 32 31 29 28 27 27 28 26 23 22 21 20 19 18 17 17 17 16 17 15 13 9 6 5 5 5 5 4 5 5 6 8 10 11 13 14 14 14 13
73 70 66 62 60 58 53 43 34 33 35 36 36 38 40 42 41 40 39 37 32 29 31 33 33 31 29 28 27 28 28 25 23 23 22 20 19 18 18 18 17 17 17 15 12 9 7 8 7 7 5 4 4 4 5 7 9 11 13 15 15 15 12
69 67 65 65 64 58 48 38 32 33 34 33 34 36 38 39 37 36 36 32 28 29 32 33 32 31 29 28 28 28 27 25 24 24 23 21 19 19 19 19 17 17 17 15 12 10 9 9 10 8 5 3 2 1 2 5 8 10 12 14 16 15 14
69 67 66 66 63 54 44 37 32 32 33 31 31 32 32 32 32 33 32 28 27 30 33 33 31 30 29 29 28 28 27 26 26 25 23 21 21 21 20 19 18 18 18 16 14 12 11 10 10 10 7 5 4 3 4 5 7 9 11 13 15 16 16
70 68 66 64 60 54 50 49 44 38 36 34 32 31 31 30 29 30 29 26 27 31 33 32 30 29 28 28 28 28 28 27 27 26 24 22 22 22 22 20 19 19 18 18 16 15 15 13 11 10 9 8 8 7 7 7 8 9 10 12 14 16 18
72 70 67 62 57 54 53 56 58 52 44 40 37 37 36 32 30 30 28 26 28 32 33 32 29 28 27 28 28 28 28 27 27 26 24 22 23 24 23 22 20 20 19 20 19 19 19 18 15 13 11 11 11 10 10 10 11 12 12 12 13 16 18
74 72 68 61 56 54 52 54 60 61 52 44 41 42 40 35 33 32 28 27 29 32 33 31 29 28 27 28 28 28 26 26 27 27 25 23 24 25 24 23 22 21 21 21 22 22 22 21 20 17 14 14 13 14 14 13 13 14 15 15 15 16 19
75 72 68 62 57 54 53 54 58 60 57 49 43 44 43 38 35 33 30 27 29 31 32 32 30 28 27 27 26 25 25 26 28 28 27 25 25 26 25 24 23 23 23 23 24 24 24 24 22 21 19 17 16 16 16 16 16 16 18 18 18 19 20
75 71 66 64 62 57 53 54 57 59 58 53 46 43 42 39 37 35 32 29 30 32 32 32 30 27 25 24 22 22 23 25 27 28 28 27 26 26 26 25 25 25 25 24 25 26 26 26 25 24 22 20 18 18 18 18 18 19 20 21 21 22 23
73 69 65 64 64 58 53 54 56 57 57 55 52 46 43 42 40 37 35 32 32 32 32 31 31 28 26 24 23 22 23 25 27 28 28 27 27 26 26 26 26 27 26 25 25 26 27 27 26 24 22 20 20 21 20 20 20 21 22 23 24 24 25
72 68 66 64 62 58 54 54 55 56 56 55 54 50 47 48 44 39 37 36 36 35 32 31 32 33 32 29 26 25 25 26 28 27 27 27 26 25 25 26 27 28 27 26 24 25 27 27 25 24 22 21 22 23 23 23 22 23 24 26 27 27 28
74 70 67 64 61 59 56 54 54 55 55 52 50 48 46 48 48 43 40 40 40 38 35 33 34 36 37 35 32 29 28 29 29 28 26 26 25 24 23 25 26 28 27 25 24 25 26 27 26 25 23 23 24 25 26 25 25 25 26 27 28 30 31
76 72 69 64 62 61 59 56 56 56 53 49 46 42 39 43 47 46 43 42 42 41 39 36 35 36 37 38 36 33 31 31 30 29 26 25 24 23 22 24 26 27 26 25 24 26 27 28 27 26 25 24 25 27 27 26 27 27 28 29 31 33 34
78 75 70 65 63 63 62 60 58 56 53 48 44 40 38 42 47 47 46 45 44 43 43 40 37 35 35 37 39 36 34 32 30 29 27 24 22 21 20 22 25 26 26 25 26 27 29 29 29 28 27 26 27 28 28 28 29 30 31 32 34 36 38
78 75 71 66 64 65 65 63 60 58 54 48 43 42 44 48 52 52 50 49 48 46 45 44 40 37 35 37 39 38 35 33 31 30 28 25 21 19 19 21 24 26 26 26 27 29 30 31 31 32 31 30 30 30 31 31 33 34 35 36 37 39 40
75 75 71 67 66 68 66 63 62 62 56 49 45 48 51 52 55 56 51 49 51 49 47 47 43 38 36 37 38 38 36 33 32 33 31 27 23 20 20 21 24 27 28 28 29 31 32 32 33 35 36 35 34 34 35 35 37 38 38 39 40 41 42
69 72 71 68 68 69 67 64 65 64 58 52 51 53 52 51 55 59 54 51 54 53 50 48 44 39 37 37 38 38 36 34 34 36 35 32 28 25 24 25 26 28 29 30 31 32 33 33 34 36 38 38 37 37 37 38 39 40 41 41 42 42 43
67 70 70 69 69 69 68 67 68 65 59 55 53 52 50 50 55 57 54 54 58 58 53 50 47 41 38 38 39 39 37 36 37 38 38 36 32 31 30 29 30 29 29 31 34 34 35 35 35 36 37 37 37 37 38 40 41 42 43 43 43 43 45
74 74 72 68 68 70 70 69 68 65 60 53 49 48 48 49 51 52 53 58 65 65 59 54 50 43 38 39 40 39 39 39 39 40 41 38 35 34 34 34 34 32 29 31 34 36 36 37 37 37 37 38 38 38 39 41 42 43 44 43 43 44 46
81 81 77 71 70 72 72 70 68 64 58 50 45 44 44 43 43 47 55 61 65 65 61 57 54 46 40 40 41 40 41 41 40 42 43 40 37 36 36 36 37 35 32 32 34 36 38 38 38 39 40 40 41 40 40 41 42 43 44 44 45 46 47
83 82 81 76 75 76 75 72 68 62 56 49 41 37 37 40 43 49 58 61 59 60 60 58 55 48 43 42 43 42 43 42 42 44 45 41 38 37 37 37 38 37 36 34 34 36 38 39 39 40 41 42 42 40 40 41 42 44 46 46 47 48 48
83 81 81 80 80 80 78 74 69 63 59 52 42 37 39 45 50 55 60 61 59 59 59 56 52 49 45 44 44 45 45 43 43 45 46 44 40 38 37 38 39 39 39 37 35 36 39 39 39 41 42 43 43 41 41 42 43 45 47 48 49 50 50
84 81 81 83 85 84 81 77 72 68 64 57 49 46 50 55 59 59 59 57 55 56 57 55 52 49 46 44 46 47 46 43 44 47 48 46 42 39 39 40 40 40 41 40 38 39 40 39 40 41 43 44 44 42 42 43 44 46 48 49 50 51 53
85 84 85 87 88 87 84 79 75 73 70 61 55 54 59 63 65 63 60 58 55 52 53 54 52 49 46 46 48 48 45 44 46 49 50 48 44 42 41 41 41 41 42 42 41 41 42 41 41 42 43 44 45 43 42 44 46 47 49 51 52 53 55
86 87 89 90 91 90 86 80 77 76 73 64 56 56 62 68 69 65 63 63 60 54 51 54 53 49 47 48 49 48 45 45 48 50 50 49 46 43 42 42 42 43 42 42 42 43 43 42 42 42 43 45 46 45 44 45 48 49 51 52 53 55 56
88 90 92 92 92 91 86 81 77 75 71 63 53 51 56 62 64 62 59 62 63 58 53 54 53 49 48 49 49 47 46 46 48 49 49 47 46 44 43 43 43 42 41 41 43 44 43 42 42 43 43 44 45 46 46 47 49 51 52 53 54 56 58
90 92 93 92 91 90 85 81 78 74 69 62 54 52 52 54 56 56 53 55 58 56 54 53 51 49 49 50 49 47 47 46 47 48 47 46 45 44 43 43 43 41 39 41 43 44 43 42 42 42 42 42 44 46 48 49 51 52 53 55 56 58 59
91 93 92 91 90 90 86 82 79 76 69 61 58 58 56 55 54 52 49 45 44 46 51 53 52 50 50 50 49 48 47 46 46 47 46 45 44 43 42 42 41 39 38 40 42 43 42 41 40 41 41 42 44 47 50 51 53 53 54 55 57 58 60
Wind_Direction
206 212 230 240 236 229 227 225 224 225 228 230 230 230 233 238 243 247 251 256 260 265 268 273 280 282 276 272 279 287 292 288 283 276 269 272 273 267 267 273 284 300 311 317 323 331 340 346 335 302 235 208 216 265 288 299 307 307 304 307 313 318 323
205 205 216 233 238 232 227 226 225 226 228 231 232 230 231 236 240 244 249 254 258 262 266 272 278 275 269 273 283 288 290 287 282 275 266 268 271 267 267 272 281 294 306 312 317 327 335 340 337 317 269 238 228 239 267 283 288 292 300 308 314 320 323
206 205 208 218 231 231 227 227 227 227 229 231 234 233 233 237 240 243 247 251 255 258 264 271 271 265 264 272 278 279 281 282 280 274 266 267 268 264 266 273 280 289 301 306 309 322 331 335 335 321 285 261 245 228 239 261 270 279 293 304 311 314 312
207 207 207 210 221 226 224 226 229 229 230 232 234 235 235 237 240 242 246 250 253 257 263 266 262 258 259 262 267 271 275 277 278 272 265 267 266 262 264 271 277 286 297 299 300 312 324 330 331 322 302 291 270 249 253 262 267 276 289 300 309 311 312
207 209 209 209 215 221 222 224 228 230 231 232 234 236 236 237 240 242 246 250 254 258 260 257 254 257 261 261 265 269 271 274 276 269 263 264 264 261 262 267 273 283 293 294 294 303 311 317 324 319 307 306 294 280 276 275 279 287 296 307 315 318 320
207 209 212 211 214 220 221 221 226 229 230 230 231 233 234 236 240 242 245 249 253 255 252 248 252 258 261 261 264 267 270 274 273 265 262 262 260 258 260 265 270 280 290 290 289 295 296 294 307 302 294 301 296 293 296 298 303 309 316 321 324 325 326
207 209 211 212 216 222 223 222 224 228 229 229 229 231 233 236 239 242 244 248 249 246 243 245 251 255 255 256 261 266 270 272 268 262 260 258 255 254 258 262 268 277 285 285 285 287 279 265 277 275 278 318 319 317 324 326 323 323 324 325 326 328 331
208 208 210 212 217 224 226 226 226 226 228 228 228 231 233 235 237 239 240 241 241 239 240 244 248 248 249 255 261 266 268 267 264 261 258 254 250 251 255 261 267 275 282 282 280 275 260 241 237 206 95 54 36 14 356 343 335 328 324 324 323 327 335
208 208 209 212 218 224 226 227 226 223 223 224 225 227 229 231 232 233 233 234 236 238 239 241 244 247 250 255 260 263 263 262 262 259 255 250 248 249 255 261 267 275 281 281 274 262 242 215 189 146 117 94 68 37 19 8 2 353 345 343 338 336 344
207 207 209 212 218 223 226 227 223 217 217 218 219 221 223 226 228 228 229 232 235 239 241 243 245 248 251 255 256 256 257 259 260 257 252 249 248 249 255 262 266 274 281 278 267 251 218 186 171 156 140 112 82 58 41 25 17 12 2 358 355 350 353
205 207 210 212 216 221 223 224 221 217 216 215 215 217 221 225 227 227 228 232 237 240 242 246 249 251 253 253 251 251 254 257 257 255 251 249 249 251 256 262 267 274 278 273 259 236 201 188 183 171 156 131 104 80 56 32 18 14 8 2 358 351 348
203 206 209 210 213 216 218 222 222 222 220 216 215 218 224 229 230 229 231 234 238 241 245 249 251 253 253 249 246 249 252 254 254 252 251 251 250 252 257 264 269 274 276 268 250 224 203 200 201 193 184 178 170 110 21 10 6 7 8 3 357 349 339
201 204 207 208 209 208 212 221 226 229 228 223 220 222 228 236 238 235 236 238 239 244 249 252 253 254 251 246 245 249 251 251 251 250 251 251 250 252 258 264 270 275 274 264 246 223 210 211 214 211 210 219 230 259 301 324 337 347 358 359 354 348 340
200 203 206 206 205 202 205 212 216 223 232 233 231 230 233 240 244 241 239 240 242 248 252 254 255 253 248 246 249 251 250 249 249 251 251 250 249 252 257 263 270 275 272 262 247 230 220 221 225 225 229 240 249 267 291 304 312 321 334 345 347 344 339
200 203 205 203 202 201 203 208 209 210 220 232 237 236 235 238 243 242 239 240 244 251 255 256 254 248 245 249 253 252 250 249 250 252 252 250 249 252 256 262 268 273 270 261 249 237 229 230 234 240 250 261 268 277 288 296 303 306 310 320 331 335 334
200 203 204 202 201 201 202 208 209 206 209 222 233 236 235 236 240 240 237 239 246 254 258 258 253 248 248 252 254 252 251 251 253 255 256 252 250 253 257 262 267 271 269 261 251 242 237 237 240 247 260 271 277 281 285 290 297 301 302 304 311 320 325
201 204 204 203 203 202 202 205 208 206 205 211 223 233 235 234 237 239 235 235 245 254 258 257 253 251 252 251 250 253 253 253 256 259 259 255 253 254 258 262 266 269 268 261 252 245 242 242 245 252 261 270 274 277 280 283 288 294 297 299 303 309 314
201 204 204 203 203 204 203 204 205 206 204 204 212 228 237 238 237 239 236 233 241 251 255 256 253 250 249 247 249 256 259 258 260 262 262 260 257 257 259 261 265 268 266 259 252 247 245 245 249 255 260 266 271 275 278 281 285 289 293 297 302 305 307
200 203 204 202 202 202 202 202 204 206 206 204 206 218 235 242 240 238 237 235 239 248 253 253 250 245 244 248 255 264 269 266 263 263 265 264 261 260 260 261 264 265 263 256 251 249 248 249 252 255 259 265 271 274 277 280 284 289 293 297 301 304 305
199 202 202 202 202 201 202 203 204 206 208 206 204 209 224 238 243 242 239 237 239 244 250 251 247 245 246 251 260 269 274 272 266 264 266 267 266 264 262 262 263 263 259 254 250 249 250 250 250 252 259 266 271 274 277 281 285 289 293 297 300 303 304
198 199 201 202 201 202 203 203 203 205 206 203 202 206 217 232 243 246 239 236 237 240 245 247 246 247 250 254 260 269 274 273 266 263 266 268 268 265 262 261 261 259 255 251 248 247 249 249 250 253 260 266 270 274 277 281 285 289 293 297 299 301 302
198 198 200 201 201 202 203 203 203 204 203 200 198 203 213 229 244 249 242 236 237 240 243 244 245 249 253 256 260 266 272 272 265 261 264 267 265 263 261 260 259 256 252 248 246 246 249 250 252 256 262 266 271 275 277 281 285 289 293 296 298 300 301
197 198 200 202 202 202 201 202 202 202 201 200 198 201 209 221 235 243 244 240 236 238 242 243 244 249 252 255 258 262 269 271 262 257 261 264 264 264 262 260 258 255 251 247 246 249 251 252 254 258 262 266 271 275 277 280 284 289 293 295 297 300 302
197 199 201 202 201 200 200 200 200 202 203 204 205 205 206 214 224 230 239 244 238 235 240 242 244 248 249 252 255 259 266 268 260 254 257 261 265 267 266 263 259 255 252 250 250 252 254 255 258 261 263 266 271 274 277 280 285 290 292 294 296 300 304
195 197 199 199 197 198 199 198 200 204 204 205 211 210 206 213 222 221 227 239 239 234 237 240 244 247 248 250 254 257 263 265 257 252 254 259 265 269 270 268 262 256 253 253 254 256 258 259 261 264 266 268 271 274 278 281 285 289 290 292 295 299 304
196 198 198 197 195 196 197 198 202 206 204 202 207 211 211 218 223 219 221 232 237 236 238 242 245 248 248 250 252 255 260 261 255 251 253 258 264 269 272 273 270 262 257 256 256 258 260 262 264 268 270 272 273 275 279 282 285 287 289 290 293 298 303
198 201 199 196 194 194 197 200 204 206 204 202 206 211 215 218 218 219 224 229 234 238 242 245 247 249 250 250 251 253 257 258 255 252 253 257 264 268 270 272 273 270 265 262 260 260 260 262 265 269 272 274 275 277 280 283 285 287 288 289 292 297 302
199 201 199 196 194 195 198 202 205 206 204 205 209 211 211 211 213 222 232 236 237 240 243 245 247 249 251 251 250 252 255 257 256 254 253 257 263 267 268 270 272 273 273 269 266 264 263 263 265 269 272 274 276 278 281 282 285 287 288 289 291 296 301
201 203 201 198 196 198 201 204 206 207 205 205 206 204 208 216 222 230 236 236 235 236 240 245 248 248 248 249 249 252 255 257 257 255 254 257 263 266 266 267 269 272 275 274 271 269 267 266 267 270 272 274 276 278 280 281 283 286 287 288 291 295 300
201 203 203 200 200 201 203 204 204 205 203 200 196 195 207 223 229 229 231 231 231 235 241 247 247 245 245 247 249 252 256 257 256 255 254 257 263 265 264 264 267 272 276 277 275 272 270 269 270 271 272 274 275 276 278 280 282 284 285 287 290 294 298
198 200 200 200 202 203 203 203 203 202 199 196 194 194 203 215 222 225 228 231 235 240 244 246 245 243 244 247 250 253 257 257 255 255 255 257 261 264 264 264 266 270 276 279 278 275 273 272 272 272 273 274 275 276 278 280 282 283 285 287 290 293 297
194 195 196 199 202 203 202 201 201 200 199 196 195 198 204 211 218 224 229 235 241 245 246 245 244 242 243 247 250 254 257 257 255 256 256 257 259 262 264 265 266 269 275 280 281 279 277 276 275 274 274 274 275 277 279 281 282 284 285 288 291 294 296
190 191 193 197 201 202 201 201 200 200 200 198 193 197 208 215 220 228 235 241 246 249 248 243 239 239 242 246 249 253 257 258 257 256 255 255 257 260 263 265 267 269 274 279 282 282 280 279 278 275 274 274 275 277 279 281 283 285 286 289 292 294 296
188 190 193 196 200 201 200 200 200 200 202 201 196 200 213 222 227 233 238 240 243 248 248 241 236 238 241 244 248 252 255 258 259 256 254 253 255 259 263 265 267 270 275 280 283 282 282 282 280 277 274 274 275 277 279 281 284 286 287 290 292 295 297
189 191 194 197 200 200 199 198 199 200 202 205 206 211 220 226 231 234 237 238 240 246 247 240 236 237 239 242 247 250 253 259 259 254 251 252 255 259 263 266 268 272 277 281 282 283 283 283 281 277 275 274 276 278 280 282 284 286 289 291 293 295 297
191 192 195 198 199 200 198 196 197 200 202 206 215 223 226 230 233 233 236 239 241 245 247 240 235 237 239 241 245 248 253 259 257 251 250 252 256 260 264 266 269 274 278 281 282 283 284 283 281 278 276 276 278 279 281 283 285 287 289 291 293 295 297
192 194 196 199 200 200 197 194 196 199 201 208 219 225 227 230 233 232 233 234 238 244 245 239 235 236 238 240 243 246 253 257 253 249 249 253 256 261 264 266 271 276 279 282 283 284 283 281 280 279 279 280 282 282 284 285 287 288 290 291 293 295 298
Height
10717 10729 10734 10732 10729 10730 10734 10739 10744 10747 10749 10751 10755 10758 10759 10762 10765 10768 10770 10772 10774 10777 10779 10780 10781 10781 10781 10781 10780 10780 10780 10780 10781 10782 10782 10782 10781 10781 10781 10781 10780 10780 10779 10778 10776 10775 10773 10772 10772 10772 10772 10775 10778 10776 10770 10764 10761 10760 10761 10761 10760 10759 10758
10711 10717 10726 10728 10724 10724 10730 10735 10738 10743 10746 10748 10751 10755 10757 10759 10762 10765 10767 10769 10772 10774 10776 10777 10778 10778 10778 10778 10778 10778 10778 10777 10779 10781 10781 10780 10780 10780 10779 10779 10779 10778 10777 10777 10776 10774 10773 10772 10772 10771 10771 10773 10776 10778 10776 10769 10763 10762 10761 10760 10759 10758 10757
10705 10707 10711 10719 10720 10720 10725 10730 10734 10739 10743 10746 10750 10754 10756 10756 10759 10762 10763 10766 10769 10771 10773 10774 10775 10775 10775 10776 10776 10776 10776 10775 10777 10779 10779 10779 10778 10778 10778 10778 10777 10777 10776 10775 10775 10773 10772 10771 10771 10770 10770 10771 10772 10773 10773 10770 10766 10764 10762 10760 10759 10758 10757
10700 10701 10701 10707 10713 10716 10720 10725 10730 10736 10741 10745 10749 10752 10754 10754 10756 10758 10760 10763 10766 10769 10771 10772 10772 10772 10772 10773 10773 10774 10773 10773 10774 10776 10777 10777 10777 10776 10776 10776 10776 10775 10774 10773 10773 10773 10771 10770 10769 10769 10768 10769 10769 10769 10769 10768 10766 10764 10763 10761 10759 10757 10756
10695 10699 10700 10702 10707 10710 10714 10721 10727 10733 10739 10743 10747 10750 10751 10751 10752 10754 10758 10761 10763 10766 10768 10769 10769 10769 10770 10771 10771 10771 10771 10771 10772 10774 10775 10775 10775 10774 10774 10774 10774 10773 10772 10772 10772 10771 10770 10769 10768 10768 10767 10767 10767 10767 10767 10766 10765 10764 10762 10760 10758 10756 10755
10689 10695 10698 10701 10705 10707 10710 10717 10723 10730 10736 10740 10744 10747 10747 10747 10748 10751 10755 10758 10760 10763 10765 10766 10766 10767 10768 10768 10768 10768 10768 10769 10770 10772 10773 10773 10773 10773 10773 10773 10773 10772 10771 10770 10770 10770 10769 10768 10767 10766 10766 10766 10765 10765 10765 10764 10763 10762 10761 10759 10757 10756 10753
10685 10689 10694 10699 10703 10705 10709 10715 10720 10726 10731 10736 10740 10742 10743 10744 10746 10750 10753 10755 10757 10760 10762 10763 10764 10765 10765 10766 10766 10766 10766 10767 10768 10769 10771 10771 10771 10771 10771 10771 10771 10770 10769 10768 10768 10768 10768 10767 10766 10765 10765 10764 10764 10763 10763 10762 10761 10761 10760 10758 10756 10755 10753
10679 10684 10689 10695 10700 10704 10709 10714 10718 10722 10728 10733 10736 10739 10741 10743 10745 10748 10751 10752 10754 10756 10759 10760 10760 10761 10762 10763 10763 10764 10764 10764 10766 10767 10768 10768 10769 10769 10769 10769 10769 10768 10767 10767 10767 10767 10766 10765 10765 10764 10764 10763 10762 10762 10761 10760 10760 10759 10758 10757 10755 10753 10751
10672 10678 10686 10692 10698 10703 10707 10713 10717 10721 10726 10730 10733 10736 10739 10741 10743 10745 10747 10749 10751 10754 10756 10757 10756 10757 10759 10760 10761 10762 10762 10762 10763 10765 10765 10766 10767 10767 10767 10767 10766 10766 10765 10765 10765 10765 10765 10764 10764 10763 10762 10762 10761 10760 10759 10758 10758 10757 10756 10755 10754 10752 10750
10668 10675 10682 10689 10695 10700 10706 10712 10717 10720 10723 10727 10730 10733 10736 10737 10739 10742 10744 10746 10748 10751 10752 10753 10753 10754 10756 10757 10758 10759 10759 10760 10761 10762 10763 10764 10765 10765 10765 10764 10764 10764 10764 10763 10763 10764 10764 10763 10763 10762 10761 10761 10760 10759 10758 10757 10756 10755 10754 10753 10752 10750 10749
10664 10670 10677 10684 10691 10697 10704 10712 10718 10720 10722 10725 10728 10731 10733 10734 10736 10739 10741 10743 10746 10748 10749 10749 10750 10752 10753 10755 10755 10756 10757 10758 10759 10760 10761 10762 10762 10763 10763 10762 10762 10762 10762 10762 10762 10763 10763 10763 10762 10761 10760 10759 10758 10757 10756 10755 10754 10753 10752 10751 10750 10749 10747
10658 10665 10671 10679 10686 10696 10706 10714 10718 10720 10721 10724 10726 10728 10731 10732 10734 10737 10739 10741 10743 10745 10745 10746 10748 10749 10751 10752 10753 10754 10755 10756 10757 10758 10759 10759 10760 10760 10760 10760 10760 10760 10760 10760 10761 10761 10761 10761 10761 10760 10759 10758 10757 10756 10754 10753 10752 10751 10750 10749 10748 10747 10746
10655 10661 10667 10674 10684 10697 10708 10715 10719 10720 10720 10722 10724 10726 10728 10731 10733 10735 10738 10739 10741 10742 10743 10744 10746 10747 10748 10749 10751 10752 10753 10754 10754 10755 10756 10757 10758 10758 10757 10758 10758 10758 10759 10759 10759 10760 10760 10760 10759 10759 10758 10756 10755 10754 10753 10752 10750 10749 10748 10747 10746 10745 10744
10653 10659 10665 10673 10683 10692 10699 10705 10712 10717 10719 10719 10722 10725 10727 10729 10731 10734 10736 10738 10739 10740 10741 10742 10744 10745 10746 10748 10749 10750 10751 10751 10752 10753 10754 10755 10755 10755 10755 10755 10756 10756 10757 10757 10757 10758 10758 10758 10758 10757 10756 10755 10754 10753 10752 10750 10749 10747 10746 10745 10744 10743 10742
10649 10656 10663 10671 10680 10687 10693 10697 10700 10707 10714 10717 10719 10721 10724 10726 10728 10731 10734 10736 10737 10738 10739 10740 10742 10743 10744 10746 10747 10748 10749 10749 10749 10750 10751 10752 10753 10753 10753 10753 10753 10754 10754 10755 10755 10755 10756 10756 10756 10755 10755 10754 10753 10752 10751 10749 10748 10746 10744 10743 10742 10741 10739
10647 10653 10661 10670 10677 10683 10691 10695 10694 10697 10706 10713 10716 10718 10720 10723 10726 10729 10732 10734 10736 10737 10737 10739 10740 10741 10742 10744 10745 10746 10747 10747 10747 10747 10749 10750 10750 10750 10750 10751 10751 10751 10752 10752 10752 10753 10753 10753 10753 10753 10753 10752 10752 10751 10749 10748 10746 10744 10742 10741 10740 10738 10737
10645 10651 10660 10668 10674 10679 10684 10689 10691 10694 10697 10705 10713 10716 10717 10721 10724 10726 10730 10732 10734 10735 10736 10737 10738 10739 10740 10742 10743 10744 10745 10745 10745 10745 10746 10747 10747 10747 10747 10748 10749 10749 10749 10749 10749 10750 10750 10751 10751 10751 10751 10750 10749 10748 10747 10746 10744 10742 10740 10738 10737 10736 10734
10640 10648 10656 10663 10669 10675 10679 10683 10688 10692 10693 10697 10707 10714 10716 10719 10722 10724 10727 10730 10731 10732 10734 10735 10736 10738 10739 10740 10741 10742 10743 10743 10743 10743 10744 10744 10745 10745 10745 10745 10746 10746 10746 10746 10747 10747 10747 10748 10748 10748 10748 10747 10746 10745 10744 10743 10741 10740 10738 10736 10735 10733 10731
10638 10645 10652 10658 10663 10670 10675 10679 10684 10689 10691 10693 10698 10708 10716 10718 10719 10723 10726 10727 10729 10730 10732 10733 10734 10736 10737 10738 10739 10740 10741 10741 10741 10741 10742 10742 10742 10742 10742 10742 10743 10743 10743 10743 10744 10744 10744 10745 10745 10745 10745 10745 10744 10743 10741 10740 10739 10737 10735 10733 10732 10730 10728
10635 10642 10648 10654 10660 10666 10670 10675 10680 10685 10690 10692 10692 10700 10711 10716 10717 10721 10724 10726 10727 10728 10729 10731 10732 10733 10734 10736 10737 10738 10738 10739 10739 10740 10740 10740 10740 10740 10739 10739 10740 10739 10739 10740 10741 10742 10741 10742 10742 10742 10742 10742 10741 10740 10739 10737 10736 10735 10733 10731 10729 10727 10725
10629 10636 10643 10649 10656 10662 10666 10672 10677 10682 10687 10691 10691 10693 10703 10713 10716 10720 10723 10724 10724 10725 10726 10728 10729 10730 10732 10733 10734 10735 10735 10736 10737 10738 10738 10738 10737 10737 10736 10736 10736 10736 10736 10737 10738 10738 10739 10739 10739 10739 10739 10739 10738 10737 10736 10735 10733 10732 10730 10728 10726 10724 10722
10624 10631 10638 10645 10651 10656 10662 10668 10674 10680 10685 10689 10689 10690 10701 10714 10719 10719 10721 10722 10722 10723 10723 10724 10725 10726 10728 10730 10732 10733 10733 10733 10734 10735 10736 10736 10735 10734 10734 10733 10733 10733 10733 10735 10735 10735 10736 10736 10736 10736 10736 10736 10735 10734 10733 10732 10730 10729 10727 10725 10723 10721 10718
10620 10627 10634 10640 10646 10652 10658 10664 10670 10677 10682 10686 10688 10690 10702 10716 10720 10719 10720 10720 10720 10720 10720 10720 10721 10722 10724 10727 10728 10730 10730 10731 10732 10733 10734 10734 10733 10732 10732 10731 10730 10730 10731 10732 10733 10733 10733 10733 10733 10732 10732 10732 10732 10731 10730 10728 10726 10725 10724 10722 10720 10717 10715
10616 10623 10629 10636 10643 10649 10654 10660 10667 10672 10677 10684 10688 10689 10697 10708 10714 10716 10718 10718 10716 10716 10716 10715 10717 10718 10721 10723 10724 10726 10727 10728 10729 10731 10731 10731 10730 10730 10729 10728 10727 10727 10728 10729 10730 10730 10730 10730 10730 10729 10728 10728 10728 10727 10726 10725 10723 10722 10720 10718 10716 10714 10712
10613 10619 10626 10633 10640 10646 10651 10657 10661 10665 10672 10680 10685 10686 10691 10699 10704 10708 10714 10717 10713 10710 10710 10711 10712 10715 10717 10719 10721 10723 10724 10725 10727 10728 10728 10728 10728 10727 10727 10726 10725 10725 10725 10727 10727 10727 10727 10727 10727 10725 10725 10724 10724 10723 10722 10721 10720 10718 10716 10715 10712 10710 10709
10616 10618 10623 10630 10637 10643 10649 10653 10655 10659 10667 10674 10678 10683 10689 10695 10698 10700 10706 10713 10710 10705 10705 10707 10709 10712 10714 10716 10717 10719 10721 10723 10724 10724 10725 10725 10725 10725 10725 10724 10723 10722 10723 10724 10724 10724 10724 10724 10723 10722 10721 10721 10720 10720 10718 10717 10715 10714 10712 10711 10709 10707 10705
10608 10613 10619 10626 10633 10639 10643 10647 10650 10656 10664 10670 10675 10681 10685 10691 10695 10697 10701 10706 10704 10700 10702 10704 10706 10709 10711 10712 10714 10716 10718 10720 10720 10721 10722 10722 10722 10722 10721 10721 10719 10719 10720 10720 10720 10720 10720 10720 10719 10718 10717 10716 10716 10716 10714 10713 10711 10709 10708 10706 10705 10703 10701
10592 10602 10612 10621 10628 10633 10637 10641 10647 10653 10662 10668 10673 10678 10682 10686 10690 10694 10697 10699 10697 10697 10699 10700 10702 10706 10708 10709 10710 10712 10715 10716 10717 10718 10719 10719 10719 10718 10718 10718 10716 10715 10717 10717 10716 10716 10716 10715 10715 10714 10713 10712 10711 10711 10710 10709 10707 10705 10703 10702 10700 10698 10696
10585 10594 10606 10615 10622 10626 10631 10637 10643 10650 10659 10667 10672 10675 10679 10681 10684 10688 10690 10690 10690 10693 10695 10696 10699 10702 10704 10705 10707 10709 10711 10713 10714 10715 10715 10716 10716 10715 10715 10715 10712 10712 10712 10713 10713 10712 10711 10711 10711 10710 10709 10707 10707 10707 10706 10704 10703 10701 10699 10697 10695 10693 10691
10582 10590 10601 10610 10614 10619 10625 10631 10639 10647 10655 10663 10668 10670 10672 10676 10681 10685 10684 10683 10686 10689 10690 10692 10696 10698 10700 10701 10703 10705 10708 10710 10711 10711 10711 10712 10712 10712 10712 10711 10709 10708 10708 10708 10709 10708 10707 10707 10707 10705 10704 10703 10702 10702 10701 10699 10698 10696 10694 10692 10690 10688 10686
10577 10586 10596 10604 10608 10612 10619 10626 10635 10642 10649 10654 10657 10660 10667 10677 10684 10683 10677 10678 10682 10684 10685 10689 10692 10694 10696 10698 10700 10702 10705 10707 10708 10707 10708 10709 10709 10709 10708 10707 10706 10705 10703 10704 10706 10705 10703 10703 10703 10701 10700 10699 10698 10697 10696 10694 10692 10691 10689 10687 10685 10683 10681
10572 10581 10590 10597 10602 10607 10613 10621 10628 10636 10642 10645 10647 10655 10666 10674 10676 10672 10668 10672 10677 10679 10681 10685 10688 10690 10692 10695 10697 10699 10702 10704 10704 10704 10704 10705 10705 10705 10704 10703 10702 10701 10700 10700 10701 10701 10700 10699 10699 10697 10696 10694 10693 10692 10691 10689 10687 10685 10683 10681 10679 10677 10675
10568 10577 10583 10589 10594 10601 10608 10616 10622 10628 10635 10638 10640 10648 10657 10659 10658 10659 10661 10666 10672 10675 10677 10681 10683 10686 10689 10691 10694 10696 10699 10700 10700 10700 10700 10700 10701 10701 10700 10699 10698 10697 10696 10697 10697 10696 10695 10695 10694 10692 10691 10689 10688 10687 10686 10684 10682 10680 10678 10676 10674 10672 10669
10564 10571 10576 10581 10586 10593 10602 10611 10617 10622 10628 10632 10633 10637 10643 10646 10648 10652 10656 10662 10669 10672 10674 10677 10680 10683 10686 10688 10690 10693 10695 10696 10696 10696 10696 10696 10696 10697 10696 10695 10694 10693 10693 10694 10693 10691 10690 10690 10689 10688 10687 10685 10683 10682 10682 10680 10677 10675 10673 10671 10668 10666 10663
10560 10566 10571 10575 10582 10589 10598 10606 10613 10618 10625 10631 10633 10633 10636 10640 10644 10649 10655 10661 10668 10671 10672 10674 10678 10680 10682 10684 10686 10689 10691 10692 10691 10691 10691 10692 10692 10692 10691 10690 10689 10689 10690 10690 10688 10686 10686 10685 10684 10683 10682 10681 10679 10677 10676 10675 10673 10670 10668 10666 10663 10661 10658
10556 10561 10566 10572 10578 10586 10594 10603 10610 10616 10623 10629 10631 10631 10633 10637 10642 10650 10656 10662 10669 10671 10670 10672 10675 10677 10678 10680 10683 10685 10687 10687 10687 10687 10687 10687 10688 10688 10687 10685 10685 10686 10686 10685 10682 10681 10681 10680 10680 10679 10678 10677 10676 10673 10672 10670 10668 10666 10664 10661 10659 10656 10653
10552 10556 10563 10569 10575 10581 10589 10597 10603 10611 10619 10625 10626 10627 10630 10635 10642 10649 10656 10663 10671 10672 10668 10668 10671 10672 10673 10676 10678 10681 10683 10683 10682 10683 10683 10683 10684 10683 10681 10680 10681 10682 10682 10680 10678 10677 10676 10676 10675 10674 10674 10673 10672 10670 10668 10666 10664 10663 10660 10657 10654 10651 10649